This demonstration page uses our WeatherBlox Daily Observations layout. Learn more.

39.29038, -76.61219

Hourly Observations for January 11, 2019

Temp ( °F °C ) Dew Point ( °F °C ) Humidity (%) Winds ( mph kmh ) Pressure ( in mb ) Visibility ( mi km ) Precip ( " mm )
12:54 am 00:54 undefined 29 -1.7 12 -11.1 49 49 undefined N/A 30.21 1023 N/A 0 0
1:54 am 01:54 undefined 29 -1.7 12 -11.1 49 49 undefined N/A 30.09 1019 N/A 0 0
2:54 am 02:54 undefined 29 -1.7 12 -11.1 49 49 undefined N/A 30.21 1023 N/A 0 0
3:54 am 03:54 undefined 29 -1.7 13 -10.6 51 51 undefined N/A 30.21 1023 N/A 0 0
4:54 am 04:54 undefined 28 -2.2 13 -10.6 53 53 undefined N/A 30.18 1022 N/A 0 0
5:54 am 05:54 undefined 28 -2.2 13 -10.6 53 53 undefined N/A 30.21 1023 N/A 0 0
6:54 am 06:54 undefined 28 -2.2 13 -10.6 53 53 undefined N/A 30.27 1025 N/A 0 0
7:54 am 07:54 undefined 29 -1.7 14 -10 54 54 undefined N/A 30.36 1028 N/A 0 0
8:54 am 08:54 undefined 30 -1.1 14 -10 51 51 undefined N/A 30.3 1026 N/A 0 0
9:54 am 09:54 undefined 32 0 14 -10 47 47 undefined N/A 30.33 1027 N/A 0 0
10:54 am 10:54 undefined 35 1.7 14 -10 42 42 undefined N/A 30.36 1028 N/A 0 0
11:54 am 11:54 undefined 35 1.7 13 -10.6 40 40 undefined N/A 30.33 1027 N/A 0 0
12:54 pm 12:54 undefined 36 2.2 12 -11.1 37 37 undefined N/A 30.33 1027 N/A 0 0
1:54 pm 13:54 undefined 37 2.8 11 -11.7 34 34 undefined N/A 30.3 1026 N/A 0 0
2:54 pm 14:54 undefined 37 2.8 10 -12.2 33 33 undefined N/A 30.27 1025 N/A 0 0
3:54 pm 15:54 undefined 37 2.8 9 -12.8 31 31 undefined N/A 30.3 1026 N/A 0 0
4:54 pm 16:54 undefined 36 2.2 7 -13.9 30 30 undefined N/A 30.33 1027 N/A 0 0
5:54 pm 17:54 undefined 36 2.2 10 -12.2 34 34 undefined N/A 30.36 1028 N/A 0 0
6:54 pm 18:54 undefined 35 1.7 8 -13.3 32 32 undefined N/A 30.39 1029 N/A 0 0
7:54 pm 19:54 undefined 34 1.1 8 -13.3 34 34 undefined N/A 30.39 1029 N/A 0 0
8:54 pm 20:54 undefined 33 0.6 11 -11.7 40 40 undefined N/A 30.42 1030 N/A 0 0
9:54 pm 21:54 undefined 32 0 13 -10.6 45 45 undefined N/A 30.45 1031 N/A 0 0
10:54 pm 22:54 undefined 32 0 14 -10 47 47 undefined N/A 30.45 1031 N/A 0 0
11:54 pm 23:54 undefined 32 0 13 -10.6 45 45 undefined N/A 30.45 1031 N/A 0 0

Powered by AerisWeather